KAP111 KBOS-KMVY

Flight info

Callsign KAP111
Flight time 0h 29m
Altitude 8000
Route LOGAN4 MVY
Aircraft C402/L-VGD/C

Departure

Time 2026-04-19 04:31
Airport Boston Logan International Airport (KBOS)

Arrival

Time 2026-04-19 05:01
Airport Martha's Vineyard Airport (KMVY)
Time Latitude Longitude Altitude Speed Heading
2026-04-19 04:19 42.36508 -71.01549 21 ft 0 kts 301°
2026-04-19 04:25 42.36508 -71.01550 21 ft 0 kts 301°
2026-04-19 04:26 42.36508 -71.01551 21 ft 2 kts 303°
2026-04-19 04:26 42.36514 -71.01572 21 ft 2 kts 261°
2026-04-19 04:26 42.36498 -71.01588 21 ft 7 kts 208°
2026-04-19 04:26 42.36450 -71.01594 21 ft 7 kts 137°
2026-04-19 04:27 42.36425 -71.01540 21 ft 7 kts 122°
2026-04-19 04:27 42.36400 -71.01486 21 ft 7 kts 121°
2026-04-19 04:27 42.36382 -71.01428 21 ft 7 kts 109°
2026-04-19 04:27 42.36362 -71.01373 21 ft 6 kts 118°
2026-04-19 04:28 42.36340 -71.01324 21 ft 6 kts 122°
2026-04-19 04:28 42.36309 -71.01255 21 ft 10 kts 121°
2026-04-19 04:28 42.36274 -71.01176 21 ft 10 kts 117°
2026-04-19 04:28 42.36243 -71.01097 21 ft 9 kts 115°
2026-04-19 04:29 42.36197 -71.01049 21 ft 8 kts 187°
2026-04-19 04:29 42.36144 -71.01074 21 ft 8 kts 200°
2026-04-19 04:29 42.36080 -71.01105 21 ft 15 kts 200°
2026-04-19 04:29 42.35949 -71.01168 21 ft 24 kts 197°
2026-04-19 04:30 42.35789 -71.01241 21 ft 21 kts 204°
2026-04-19 04:30 42.35657 -71.01307 21 ft 13 kts 198°
2026-04-19 04:30 42.35592 -71.01247 21 ft 15 kts 92°
2026-04-19 04:30 42.35617 -71.01072 21 ft 29 kts 76°
2026-04-19 04:31 42.35705 -71.00567 23 ft 78 kts 69°
2026-04-19 04:31 42.35874 -70.99784 171 ft 92 kts 73°
2026-04-19 04:31 42.36065 -70.98966 528 ft 93 kts 69°
2026-04-19 04:31 42.36251 -70.98109 948 ft 91 kts 74°
2026-04-19 04:32 42.36485 -70.97240 1145 ft 110 kts 69°
2026-04-19 04:32 42.36835 -70.96305 1605 ft 100 kts 62°
2026-04-19 04:32 42.37187 -70.95549 2018 ft 100 kts 58°
2026-04-19 04:32 42.37670 -70.94883 2345 ft 104 kts 46°
2026-04-19 04:33 42.38342 -70.94242 2564 ft 117 kts 38°
2026-04-19 04:33 42.38960 -70.93551 2846 ft 123 kts 58°
2026-04-19 04:33 42.39314 -70.92526 3230 ft 112 kts 77°
2026-04-19 04:33 42.39611 -70.91543 3529 ft 121 kts 63°
2026-04-19 04:34 42.40181 -70.90628 3758 ft 132 kts 45°
2026-04-19 04:34 42.40955 -70.89921 4044 ft 136 kts 27°
2026-04-19 04:34 42.41859 -70.89504 4342 ft 139 kts 11°
2026-04-19 04:34 42.42759 -70.89052 4634 ft 140 kts 28°
2026-04-19 04:35 42.43688 -70.89102 4877 ft 139 kts 317°
2026-04-19 04:35 42.43970 -70.90191 5140 ft 122 kts 245°
2026-04-19 04:35 42.43469 -70.91052 5462 ft 115 kts 225°
2026-04-19 04:35 42.42905 -70.91821 5765 ft 113 kts 207°
2026-04-19 04:36 42.42133 -70.91727 6041 ft 118 kts 163°
2026-04-19 04:36 42.41356 -70.91420 6353 ft 116 kts 170°
2026-04-19 04:36 42.40570 -70.91149 6612 ft 118 kts 171°
2026-04-19 04:36 42.39749 -70.90890 6796 ft 125 kts 172°
2026-04-19 04:37 42.38890 -70.90628 7008 ft 128 kts 172°
2026-04-19 04:37 42.38015 -70.90362 7223 ft 130 kts 172°
2026-04-19 04:37 42.37132 -70.90094 7446 ft 131 kts 172°
2026-04-19 04:37 42.36243 -70.89827 7665 ft 131 kts 172°
2026-04-19 04:38 42.35349 -70.89558 7860 ft 134 kts 173°
2026-04-19 04:38 42.34374 -70.89275 7833 ft 150 kts 173°
2026-04-19 04:38 42.33327 -70.88967 7830 ft 158 kts 172°
2026-04-19 04:38 42.32237 -70.88640 7834 ft 163 kts 172°
2026-04-19 04:39 42.31120 -70.88304 7826 ft 165 kts 172°
2026-04-19 04:39 42.29993 -70.87966 7817 ft 167 kts 172°
2026-04-19 04:39 42.28858 -70.87625 7821 ft 167 kts 171°
2026-04-19 04:39 42.27719 -70.87284 7824 ft 168 kts 171°
2026-04-19 04:40 42.26578 -70.86943 7823 ft 168 kts 171°
2026-04-19 04:40 42.25434 -70.86601 7827 ft 168 kts 171°
2026-04-19 04:40 42.24288 -70.86257 7823 ft 169 kts 171°
2026-04-19 04:40 42.23143 -70.85915 7822 ft 169 kts 171°
2026-04-19 04:41 42.21997 -70.85573 7821 ft 169 kts 171°
2026-04-19 04:41 42.20851 -70.85230 7824 ft 169 kts 171°
2026-04-19 04:41 42.19703 -70.84887 7813 ft 169 kts 171°
2026-04-19 04:41 42.18551 -70.84543 7818 ft 170 kts 171°
2026-04-19 04:42 42.17395 -70.84198 7818 ft 170 kts 171°
2026-04-19 04:42 42.16241 -70.83854 7818 ft 170 kts 171°
2026-04-19 04:42 42.15082 -70.83509 7818 ft 171 kts 171°
2026-04-19 04:42 42.13923 -70.83162 7818 ft 171 kts 171°
2026-04-19 04:43 42.12763 -70.82817 7814 ft 171 kts 171°
2026-04-19 04:43 42.11603 -70.82471 7817 ft 171 kts 171°
2026-04-19 04:43 42.10818 -70.82238 7814 ft 171 kts 171°
2026-04-19 04:43 42.09282 -70.81780 7812 ft 171 kts 171°
2026-04-19 04:44 42.08500 -70.81547 7813 ft 170 kts 171°
2026-04-19 04:44 42.07342 -70.81203 7816 ft 170 kts 171°
2026-04-19 04:44 42.06183 -70.80858 7813 ft 170 kts 171°
2026-04-19 04:44 42.05025 -70.80513 7817 ft 171 kts 171°
2026-04-19 04:45 42.03866 -70.80169 7813 ft 171 kts 171°
2026-04-19 04:45 42.02708 -70.79825 7817 ft 171 kts 171°
2026-04-19 04:45 42.01549 -70.79481 7809 ft 171 kts 171°
2026-04-19 04:45 42.00389 -70.79137 7808 ft 171 kts 171°
2026-04-19 04:46 41.99231 -70.78793 7800 ft 171 kts 171°
2026-04-19 04:46 41.98069 -70.78448 7800 ft 172 kts 171°
2026-04-19 04:46 41.96900 -70.78102 7801 ft 172 kts 171°
2026-04-19 04:46 41.95730 -70.77755 7798 ft 172 kts 171°
2026-04-19 04:47 41.94561 -70.77408 7796 ft 172 kts 171°
2026-04-19 04:47 41.93392 -70.77062 7801 ft 172 kts 171°
2026-04-19 04:47 41.92219 -70.76715 7798 ft 172 kts 171°
2026-04-19 04:47 41.91048 -70.76368 7797 ft 172 kts 171°
2026-04-19 04:48 41.89877 -70.76022 7801 ft 172 kts 171°
2026-04-19 04:48 41.88706 -70.75676 7802 ft 172 kts 171°
2026-04-19 04:48 41.87535 -70.75329 7802 ft 172 kts 171°
2026-04-19 04:48 41.86364 -70.74983 7802 ft 172 kts 171°
2026-04-19 04:49 41.85179 -70.74633 7798 ft 172 kts 171°
2026-04-19 04:49 41.84008 -70.74288 7799 ft 172 kts 171°
2026-04-19 04:49 41.82837 -70.73942 7799 ft 172 kts 171°
2026-04-19 04:49 41.81666 -70.73596 7802 ft 172 kts 171°
2026-04-19 04:50 41.80494 -70.73250 7803 ft 172 kts 171°
2026-04-19 04:50 41.79322 -70.72905 7798 ft 172 kts 171°
2026-04-19 04:50 41.78151 -70.72559 7800 ft 173 kts 171°
2026-04-19 04:50 41.76977 -70.72212 7799 ft 173 kts 171°
2026-04-19 04:51 41.75802 -70.71865 7797 ft 173 kts 171°
2026-04-19 04:51 41.74625 -70.71519 7800 ft 173 kts 171°
2026-04-19 04:51 41.73450 -70.71168 7796 ft 173 kts 169°
2026-04-19 04:51 41.72449 -70.70262 7801 ft 178 kts 137°
2026-04-19 04:52 41.71561 -70.69082 7712 ft 182 kts 139°
2026-04-19 04:52 41.70642 -70.67899 7623 ft 184 kts 139°
2026-04-19 04:52 41.69716 -70.66704 7541 ft 186 kts 139°
2026-04-19 04:52 41.68739 -70.65439 7355 ft 206 kts 139°
2026-04-19 04:53 41.67675 -70.64068 7212 ft 218 kts 139°
2026-04-19 04:53 41.66567 -70.62637 7096 ft 224 kts 139°
2026-04-19 04:53 41.65428 -70.61167 6911 ft 231 kts 139°
2026-04-19 04:53 41.64263 -70.59665 6729 ft 235 kts 139°
2026-04-19 04:54 41.63084 -70.58142 6550 ft 236 kts 139°
2026-04-19 04:54 41.61896 -70.56610 6332 ft 238 kts 139°
2026-04-19 04:54 41.60698 -70.55067 6107 ft 240 kts 139°
2026-04-19 04:54 41.59499 -70.53523 5877 ft 239 kts 139°
2026-04-19 04:55 41.58342 -70.52032 5642 ft 223 kts 139°
2026-04-19 04:55 41.57252 -70.50627 5394 ft 213 kts 139°
2026-04-19 04:55 41.56204 -70.49280 5132 ft 206 kts 139°
2026-04-19 04:55 41.55181 -70.47967 4868 ft 202 kts 139°
2026-04-19 04:56 41.54067 -70.46886 4593 ft 197 kts 160°
2026-04-19 04:56 41.52726 -70.46662 4267 ft 197 kts 187°
2026-04-19 04:56 41.51458 -70.47357 3756 ft 206 kts 216°
2026-04-19 04:56 41.50314 -70.48613 3027 ft 214 kts 220°
2026-04-19 04:57 41.49194 -70.49911 2568 ft 210 kts 220°
2026-04-19 04:57 41.48096 -70.51157 2262 ft 205 kts 220°
2026-04-19 04:57 41.47026 -70.52387 1988 ft 202 kts 220°
2026-04-19 04:57 41.45982 -70.53585 1740 ft 186 kts 220°
2026-04-19 04:58 41.45151 -70.54531 1489 ft 132 kts 219°
2026-04-19 04:58 41.44505 -70.55260 1307 ft 114 kts 217°
2026-04-19 04:58 41.43921 -70.55926 1158 ft 107 kts 218°
2026-04-19 04:58 41.43377 -70.56548 1018 ft 100 kts 219°
2026-04-19 04:59 41.42847 -70.57149 883 ft 100 kts 219°
2026-04-19 04:59 41.42313 -70.57760 743 ft 102 kts 219°
2026-04-19 04:59 41.41769 -70.58374 609 ft 103 kts 220°
2026-04-19 04:59 41.41224 -70.58988 480 ft 104 kts 221°
2026-04-19 05:00 41.40670 -70.59623 333 ft 107 kts 223°
2026-04-19 05:00 41.40118 -70.60278 198 ft 104 kts 223°
2026-04-19 05:00 41.39592 -70.60879 71 ft 94 kts 221°
2026-04-19 05:00 41.39210 -70.61320 62 ft 52 kts 220°
2026-04-19 05:01 41.39062 -70.61479 62 ft 5 kts 164°
2026-04-19 05:01 41.39044 -70.61457 61 ft 3 kts 129°
2026-04-19 05:01 41.39031 -70.61436 62 ft 3 kts 130°
2026-04-19 05:01 41.38995 -70.61375 59 ft 11 kts 108°
2026-04-19 05:02 41.38984 -70.61299 62 ft 7 kts 131°
2026-04-19 05:02 41.38965 -70.61274 62 ft 1 kts 196°
2026-04-19 05:02 41.38963 -70.61276 62 ft 0 kts 220°